Location: Hebron
(33.0265°N, 96.8636°W)
Time: 07:50:59
(UTC+00:00)

SL-4 R/B - Pass Details

Date: 08 December 2021
Orbit: 427 x 660 km, 51.6° (Epoch: 25 January)

Event Time Altitude Azimuth Distance (km) Brightness Sun altitude
Exits shadow 12:27:59 14° 273° (W) 1,307 3.3 -10.5°
Maximum altitude 12:30:14 26° 324° (NW) 912 2.7 -10.1°
Drops below altitude 10° 12:33:21 10° 24° (NNE) 1,619 4.5 -9.4°
Sets 12:35:49 0° 37° (NE) 2,540 5.6 -9.0°
